Погода в Каннуре

Индия     11°52′29″N   75°22′45″E
темп.,
°C
ветер,
м/с
пор.,
м/с
влажн.,
%
обл.,
%
осадки,
мм/ч
давл.,
гПа
погр.,
м
17 мая, пн
пн1723:30+25юв3487100 4.4 1008267
02:30+25юв4688100 0.1 1006280
05:30+24юв468996 0.1 1007260
08:30+26юв368584 1.2 1009313
11:30+29ююв467587 3.6 1009754
14:30+30ю456537 1.4 1007969
17:30+29ю35747 1.9 1007599
20:30+27ююв348218 0.1 1009368
18 мая, вт
вт1823:30+26юв3587100 0.1 1009342
02:30+25юв4688100 0.2 1007403
05:30+25юв4888100 1.3 1007434
08:30+28юв6979100 1.4 1009833
11:30+30ююв796987 3.2 10091083
14:30+29ю6875100 5.2 1007850
17:30+27ю358298 9.8 1007446
20:30+26юв1186100 2.8 1009142
19 мая, ср
ср1923:30+26в238964 3.4 1009147
02:30+25вюв2390100 0.3 1007173
05:30+25юв359079 1.9 1007247
08:30+27юв458171 0.3 1010520
11:30+29ю567587 2.4 1009820
14:30+29ююз347393 2.6 1007947
17:30+28юз2279100 5.2 1007277
20:30+26св008498 4.6 100964
20 мая, чт
чт2023:30+26св1187100 6.9 100945
02:30+25всв229184 0.1 1007100
05:30+25вюв229090 0.1 1008119
08:30+27вюв228086 0.0 1010360
11:30+30ююз336988 0.1 1010966
14:30+29юз337097 0.6 1007752
17:30+29юз2374100 0.9 1008627
20:30+27зюз0181100 1.1 100956
21 мая, пт
пт2123:30+27с1183100 1.4 1009175
02:30+26вюв2289100 3.1 1008105
05:30+26вюв238968 3.6 1008172
08:30+27юв3582100 1.1 1011401
11:30+29ю567093 1.1 1010905
14:30+29ю447370 0.0 1008836
17:30+28ю447784 0.4 1008678
20:30+27ююв2384100 0.3 1010288